< < Back
Terminal Aerodrome Forecast


Current Version              Previous Versions:   1  2  3  4  5  6  7  8  9  

Terminal Aerodrome Forecast

761
FTUS44 KOHX 232300
TAFBNA
TAF
KBNA 232325Z 2400/2424 02009KT P6SM SKC
     FM240200 VRB04KT P6SM SKC
     FM241500 18011KT P6SM FEW060 SCT250=



Latest METAR

685
SAUS70 KWBC 240400
MTRBNA
METAR KBNA 240353Z 04004KT 10SM CLR 13/02 A3001 RMK AO2 SLP161
T01330022


USA.gov is the U.S. government's official web portal to all federal, state and local government web resources and services.